DW5993 Weather Reports


Display with metric or nautical units.
time (UTC)temp
F
wind
direction
speed
MPH
gust
MPH
rain 1hr
in
rain 24hr
in
rain mn
in
humidity
%
barometer
mb
20190625072916 67 292 2.0 3.0 0.00 0.00 0.00 31 1017.1
20190625071916 67 292 3.0 5.0 0.00 0.00 0.00 31 1017.4
20190625070916 67 247 2.0 3.0 0.00 0.00 0.00 32 1017.1
20190625065916 67 270 1.0 2.0 0.00 0.00 0.00 32 1017.8
20190625064916 67 292 2.0 5.0 0.00 0.00 0.00 31 1017.1
20190625063916 67 225 2.0 6.0 0.00 0.00 0.00 32 1017.2
20190625062916 67 247 3.0 7.0 0.00 0.00 0.00 33 1016.9
20190625061916 67 292 3.0 6.0 0.00 0.00 0.00 33 1017.0
20190625060916 67 315 3.0 6.0 0.00 0.00 0.00 34 1016.8
20190625055917 67 292 4.0 8.0 0.00 0.00 0.00 35 1016.8
20190625054917 67 292 3.0 6.0 0.00 0.00 0.00 35 1016.4
20190625053917 67 270 3.0 5.0 0.00 0.00 0.00 34 1016.6
20190625052917 67 292 4.0 9.0 0.00 0.00 0.00 33 1016.7
20190625051917 68 247 4.0 8.0 0.00 0.00 0.00 31 1016.7
20190625050916 68 270 3.0 6.0 0.00 0.00 0.00 31 1016.9
20190625045917 68 270 4.0 8.0 0.00 0.00 0.00 33 1017.0
20190625044917 68 292 1.0 2.0 0.00 0.00 0.00 32 1017.2
20190625043917 67 292 5.0 11.0 0.00 0.00 0.00 34 1017.6
20190625042917 65 0.0 0.0 0.00 0.00 0.00 39 1016.9
20190625041917 67 0.0 0.0 0.00 0.00 0.00 35 1017.1
20190625040916 68 202 2.0 4.0 0.00 0.00 0.00 32 1017.3
20190625035916 66 315 4.0 8.0 0.00 0.00 0.00 35 1017.1
20190625034916 65 292 1.0 2.0 0.00 0.00 0.00 35 1016.6
20190625033917 66 45 1.0 2.0 0.00 0.00 0.00 35 1016.6
20190625032917 69 67 1.0 1.0 0.00 0.00 0.00 29 1016.5
20190625031916 69 315 2.0 4.0 0.00 0.00 0.00 29 1015.7
20190625030917 67 292 2.0 4.0 0.00 0.00 0.00 33 1015.3
20190625025916 65 292 1.0 1.0 0.00 0.00 0.00 38 1015.0
20190625024917 65 292 1.0 2.0 0.00 0.00 0.00 40 1014.6
20190625023916 66 0.0 1.0 0.00 0.00 0.00 38 1014.9
20190625022917 68 0.0 0.0 0.00 0.00 0.00 29 1015.0
20190625021917 70 0.0 0.0 0.00 0.00 0.00 29 1015.5
20190625020917 72 0.0 0.0 0.00 0.00 0.00 23 1015.7
20190625015916 72 0.0 2.0 0.00 0.00 0.00 24 1016.0
20190625014916 73 315 2.0 5.0 0.00 0.00 0.00 23 1015.9
20190625013916 75 292 4.0 6.0 0.00 0.06 0.00 22 1016.5
20190625012917 76 270 1.0 3.0 0.00 0.06 0.00 20 1016.0
20190625011916 76 135 2.0 4.0 0.00 0.06 0.00 22 1015.9
20190625010916 78 225 1.0 2.0 0.00 0.06 0.00 19 1015.8
20190625005916 78 112 1.0 3.0 0.00 0.06 0.00 23 1015.5
20190625004916 78 0 1.0 2.0 0.00 0.06 0.00 22 1015.5
20190625003917 79 45 1.0 2.0 0.00 0.06 0.00 23 1015.6
20190625002917 78 270 1.0 4.0 0.00 0.06 0.00 23 1015.6
20190625001917 78 67 4.0 5.0 0.00 0.06 0.00 21 1015.6
20190625000916 79 180 1.0 2.0 0.00 0.06 0.00 23 1015.7
20190624235917 80 0.0 0.0 0.00 0.06 0.00 28 1016.2
20190624234917 76 157 4.0 7.0 0.00 0.06 0.00 22 1015.3
20190624233917 76 157 1.0 2.0 0.00 0.06 0.00 27 1015.3
20190624232916 76 0.0 1.0 0.00 0.06 0.00 25 1015.1
20190624231916 76 0.0 0.0 0.00 0.06 0.00 24 1015.1
20190624230916 76 0.0 0.0 0.00 0.06 0.00 26 1015.3
20190624225916 76 157 2.0 3.0 0.00 0.06 0.00 26 1015.1
20190624224917 76 270 1.0 1.0 0.00 0.06 0.00 23 1014.0
20190624223916 76 157 2.0 4.0 0.00 0.06 0.00 24 1013.4
20190624222916 77 0.0 0.0 0.00 0.06 0.00 27 1013.6
20190624221916 76 0.0 1.0 0.00 0.06 0.00 24 1013.7
20190624220917 76 0.0 1.0 0.00 0.06 0.00 27 1013.8
20190624215917 75 0.0 0.0 0.00 0.06 0.00 24 1013.8
20190624214916 77 0.0 1.0 0.00 0.06 0.00 29 1014.0
20190624213917 77 0.0 1.0 0.00 0.06 0.00 25 1014.0
20190624212917 78 67 1.0 1.0 0.00 0.06 0.00 24 1014.0
20190624211917 77 0.0 0.0 0.00 0.06 0.00 24 1013.8
20190624210917 76 0.0 1.0 0.00 0.06 0.00 28 1013.9
20190624205917 75 0.0 1.0 0.00 0.06 0.00 28 1014.1
20190624204917 75 67 1.0 1.0 0.00 0.06 0.00 29 1013.8
20190624203916 75 0.0 1.0 0.00 0.06 0.00 29 1014.0
20190624202917 75 180 2.0 3.0 0.00 0.06 0.00 25 1014.0
20190624201916 75 0.0 0.0 0.00 0.06 0.00 32 1014.3
20190624200917 75 0.0 0.0 0.00 0.06 0.00 32 1014.4
20190624195917 75 0.0 1.0 0.00 0.06 0.00 27 1014.5
20190624194916 74 0.0 1.0 0.00 0.06 0.00 30 1014.5
20190624193917 76 0.0 0.0 0.00 0.06 0.00 26 1014.7
20190624192917 73 0.0 0.0 0.00 0.06 0.00 27 1014.3
20190624191917 74 135 1.0 2.0 0.00 0.06 0.00 30 1015.0
20190624190916 73 135 3.0 3.0 0.00 0.06 0.00 28 1014.6
20190624185916 76 0.0 0.0 0.00 0.06 0.00 28 1015.6
20190624184916 72 90 1.0 2.0 0.00 0.06 0.00 27 1014.8
20190624183916 73 0.0 0.0 0.00 0.06 0.00 29 1015.3
20190624182917 73 0.0 1.0 0.00 0.06 0.00 26 1015.3
20190624181917 72 90 1.0 2.0 0.00 0.06 0.00 26 1015.0
20190624180918 72 270 1.0 2.0 0.00 0.06 0.00 28 1015.2
20190624175916 70 225 1.0 4.0 0.00 0.06 0.00 30 1015.4
20190624174916 70 225 2.0 4.0 0.00 0.06 0.00 33 1015.2
20190624173917 70 0.0 0.0 0.00 0.06 0.00 28 1015.4
20190624172916 70 0.0 1.0 0.00 0.06 0.00 31 1016.0
20190624171916 70 0.0 1.0 0.00 0.06 0.00 28 1015.8
20190624170916 70 0 1.0 3.0 0.00 0.06 0.00 33 1016.5
20190624165916 71 0.0 0.0 0.00 0.06 0.00 30 1016.4
20190624164916 70 45 1.0 2.0 0.00 0.06 0.00 35 1016.5
20190624163923 71 0.0 0.0 0.00 0.06 0.00 31 1016.7
20190624162916 70 135 1.0 3.0 0.00 0.06 0.00 28 1016.5
20190624161916 69 90 2.0 4.0 0.00 0.06 0.00 28 1016.0
20190624160918 70 67 4.0 5.0 0.00 0.06 0.00 29 1016.5
20190624155917 70 180 2.0 4.0 0.00 0.06 0.00 29 1016.6
20190624154916 69 112 3.0 5.0 0.00 0.06 0.00 31 1016.3
20190624153916 68 135 3.0 7.0 0.00 0.06 0.00 31 1015.9
20190624152916 68 45 1.0 2.0 0.00 0.06 0.00 33 1016.2
20190624151916 67 135 2.0 4.0 0.00 0.06 0.00 33 1016.3
20190624150916 67 0 3.0 5.0 0.00 0.06 0.00 30 1016.4
20190624145916 66 135 2.0 4.0 0.00 0.06 0.00 33 1017.0
20190624144917 66 225 2.0 3.0 0.00 0.06 0.00 32 1017.1
20190624143916 65 135 2.0 5.0 0.00 0.06 0.00 35 1017.6
20190624142916 65 90 1.0 3.0 0.00 0.06 0.00 34 1017.9
20190624141916 66 157 4.0 7.0 0.00 0.06 0.00 33 1017.9
20190624140917 67 337 3.0 6.0 0.00 0.06 0.00 35 1018.4
20190624135917 67 247 3.0 7.0 0.00 0.06 0.00 31 1018.7
20190624134917 67 270 4.0 6.0 0.00 0.06 0.00 33 1018.9
20190624133916 67 0.0 2.0 0.00 0.06 0.00 32 1018.7
20190624132917 66 180 2.0 4.0 0.00 0.06 0.00 33 1018.3
20190624131916 64 270 3.0 5.0 0.00 0.06 0.00 35 1018.4
20190624130916 64 292 2.0 5.0 0.00 0.06 0.00 37 1018.6
20190624125918 63 315 5.0 10.0 0.00 0.06 0.00 37 1018.6
20190624124916 62 180 2.0 3.0 0.00 0.06 0.00 36 1018.2
20190624123917 62 292 6.0 12.0 0.00 0.06 0.00 37 1017.9
20190624122917 61 315 3.0 4.0 0.00 0.06 0.00 39 1018.0
20190624121916 61 292 3.0 7.0 0.00 0.06 0.00 39 1018.2
20190624120916 61 270 2.0 3.0 0.00 0.06 0.00 39 1018.7
20190624115916 61 292 2.0 5.0 0.00 0.06 0.00 38 1018.0
20190624114916 60 292 2.0 5.0 0.00 0.06 0.00 40 1018.1
20190624113916 60 292 4.0 9.0 0.00 0.06 0.00 40 1017.8
20190624112916 60 292 4.0 10.0 0.00 0.06 0.00 41 1018.0
20190624111916 60 315 5.0 8.0 0.00 0.06 0.00 39 1018.1
20190624110916 60 247 5.0 9.0 0.00 0.06 0.00 42 1018.0
20190624105916 57 315 3.0 5.0 0.00 0.06 0.00 47 1017.5
20190624104916 52 270 2.0 4.0 0.00 0.06 0.00 59 1016.4
20190624103916 48 0.0 0.0 0.00 0.06 0.00 73 1016.8
20190624102916 48 0.0 0.0 0.00 0.06 0.00 77 1015.8
20190624101916 47 270 1.0 2.0 0.00 0.06 0.00 77 1015.9
20190624100916 47 0.0 0.0 0.00 0.06 0.00 76 1016.0
20190624095916 47 292 2.0 3.0 0.00 0.06 0.00 78 1016.1
20190624094916 48 0.0 0.0 0.00 0.06 0.00 76 1016.3
20190624093916 47 0 1.0 2.0 0.00 0.06 0.00 76 1015.7
20190624092916 46 0.0 2.0 0.00 0.06 0.00 79 1015.8
20190624091916 45 0.0 2.0 0.00 0.06 0.00 80 1016.0
20190624090916 45 157 1.0 3.0 0.00 0.06 0.00 82 1015.5
20190624085916 45 0.0 0.0 0.00 0.06 0.00 83 1015.9
20190624084916 45 0.0 0.0 0.00 0.06 0.00 81 1015.6
20190624083917 45 0.0 0.0 0.00 0.06 0.00 81 1014.9
20190624082916 45 0.0 1.0 0.00 0.06 0.00 83 1015.2
20190624081916 45 0.0 0.0 0.00 0.06 0.00 82 1014.8
20190624080916 44 0.0 0.0 0.00 0.06 0.00 83 1014.9
20190624075916 44 315 1.0 2.0 0.00 0.06 0.00 81 1014.9
20190624074916 44 0.0 0.0 0.00 0.06 0.00 84 1014.9
20190624073916 44 0.0 0.0 0.00 0.06 0.00 84 1014.9